Flag for Portugal Weather past 2 weeks in Porto, Portugal

Now
64 °F

Passing clouds.


Feels Like: 64 °F
Forecast: 59 / 77 °F
Wind: 2 mph from North

Location: Porto / Pedras Rubras

Current Time: Sep 20, 2014 at 11:54:15 PM

Latest Report: Sep 20, 2014 at 11:00 PM


Visibility: N/A

Pressure: 30.07 "Hg

Humidity: 88%

Dew point: 61 °F

Location of PortoLocation

Historic Weather in Porto — Graph

°F

Porto temperature yesterday

Maximum temperature yesterday: 70 °F (at 1:30 PM)
Minimum temperature yesterday: 64 °F (at 12:00 AM)
Average temperature yesterday: 67 °F

Past Weeks' High & Low Weather Summary

 TemperatureHumidityPressure
High81 °F (Sep 11, 2:30 PM)100% (Sep 5, 11:00 PM)30.07 "Hg (Sep 5, 11:00 PM)
Low59 °F (Sep 9, 5:00 AM)51% (Sep 10, 1:00 PM)29.50 "Hg (Sep 16, 11:00 PM)
Average69 °F85%29.86 "Hg
* Reported Sep 5 10:00 PM — Sep 20 10:30 PM, Porto, Weather by CustomWeather, © 2014

Note: Actual official high and low records may vary slightly from our data, if they occured in-between our weather recording intervals... More about our weather records

Advertising

Porto weather history for previous 24 hours

 ConditionsComfort  
Time TempWeatherWind HumidityBarometerVisibility
10:30 PM
Sep 20
64 °FPassing clouds.6 mph88%30.07 "HgN/A
10:00 PM64 °FPassing clouds.3 mph88%30.07 "HgN/A
9:00 PM66 °FPassing clouds.5 mph83%30.04 "HgN/A
8:30 PM66 °FScattered clouds.3 mph83%30.04 "HgN/A
8:00 PM66 °FScattered showers. Scattered clouds.3 mph88%30.04 "HgN/A
7:30 PM68 °FScattered clouds.3 mph78%30.01 "HgN/A
7:00 PM70 °FPartly sunny.6 mph73%30.01 "HgN/A
6:30 PM72 °FScattered clouds.6 mph73%30.01 "HgN/A
2:00 PM73 °FScattered clouds.14 mph65%30.01 "HgN/A
1:30 PM72 °FScattered clouds.13 mph69%30.01 "HgN/A
1:00 PM72 °FScattered clouds.15 mph69%30.01 "HgN/A
12:30 PM72 °FScattered clouds.16 mph69%30.01 "HgN/A
12:00 PM73 °FScattered clouds.20 mph65%30.01 "HgN/A
11:00 AM72 °FScattered clouds.18 mph69%30.01 "HgN/A
10:30 AM70 °FScattered clouds.20 mph73%29.98 "HgN/A
10:00 AM68 °FScattered clouds.18 mph73%29.98 "HgN/A
9:30 AM68 °FScattered showers. Scattered clouds.17 mph78%29.98 "HgN/A
9:00 AM68 °FScattered showers. Broken clouds.16 mph78%29.95 "HgN/A
8:30 AM66 °FScattered showers. Broken clouds.15 mph83%29.95 "HgN/A
8:00 AM64 °FPassing clouds.12 mph83%29.92 "HgN/A
7:30 AM64 °FPassing clouds.10 mph83%29.92 "HgN/A
7:00 AM63 °FPassing clouds.12 mph88%29.92 "HgN/A
6:30 AM63 °FPassing clouds.9 mph88%29.92 "HgN/A
6:00 AM64 °FPassing clouds.9 mph83%29.92 "HgN/A
5:30 AM64 °FPassing clouds.13 mph83%29.89 "HgN/A
5:00 AM64 °FPartly cloudy.13 mph83%29.89 "HgN/A
4:30 AM64 °FPassing clouds.13 mph83%29.89 "HgN/A
4:00 AM64 °FPassing clouds.13 mph88%29.89 "HgN/A
3:30 AM64 °FPassing clouds.13 mph88%29.89 "HgN/A
3:00 AM64 °FPassing clouds.13 mph88%29.89 "HgN/A
2:00 AM64 °FPassing clouds.14 mph88%29.89 "HgN/A
1:00 AM64 °FPassing clouds.13 mph94%29.89 "HgN/A
12:30 AM64 °FPassing clouds.12 mph94%29.89 "HgN/A
12:00 AM66 °FPassing clouds.12 mph88%29.89 "HgN/A
11:30 PM
Sep 19
66 °FPassing clouds.13 mph88%29.89 "HgN/A
11:00 PM66 °FPartly cloudy.13 mph94%29.89 "HgN/A
Weather by CustomWeather, © 2014

See weather overviewHow to use our weather pages